Location: Monrovia
(34.7865°N, 86.7139°W)
Time: 00:40:33
(UTC+00:00)

Cosmos 1833 - Pass Details

Date: 14 July 2020
Orbit: 837 x 862 km, 70.9° (Epoch: 12 August)

Event Time Altitude Azimuth Distance (km) Brightness Sun altitude
Exits shadow 09:54:11 - 195° (SSW) 3,000 6.6 -9.7°
Reaches altitude 10° 09:55:38 10° 194° (SSW) 2,444 6.2 -9.4°
Maximum altitude 10:01:14 78° 109° (ESE) 859 4.4 -8.5°
Drops below altitude 10° 10:06:51 10° 24° (NNE) 2,455 7.6 -7.5°
Sets 10:09:18 0° 23° (NNE) 3,393 8.4 -7.1°
